Starlink 11701

operational
NORAD ID: 63760 Int'l Des: 2025-089 Owner: SPXS Country: US Constellation: starlink
LEOCIRCULAR

关于 Starlink 11701

正在加载描述...

实时位置

正在加载3D地球...

即将过境

高度历史

Altitude vs Time

uPlot chart will show altitude changes over time

两行轨道根数

1 63760U 25089K 25353.53779379 .00170062 00000-0 12993-2 0 9996
2 63760 43.0016 55.0174 0002691 278.6234 81.4329 15.70885225 37538
Epoch: Dec 19, 2025 • Age: 10 hours

当前状态

高度 365.5 km
速度 7.69 km/s
星下点 -37.32°S, 148.29°W
发射日期 Apr 29, 2025
运行时间 0.6 years
类型 internet

技术详情

分类 Payload
质量 960.00 kg
干质量 910.00 kg
总质量 960.00 kg
长度 0.30 m
直径 4.10 m
跨度 29.00 m
形状 Box + pan
制造商 SPXS
平台类型 Starlink V2MD
阶段状态 In Orbit
所有者/国家 SPXS/US

大型星座

Loading constellations...